星链-5824 (STARLINK-5824 )

导读

STARLINK-5824是美国太空探索技术公司(SpaceX)星链互联网卫星星座中的一员,于2023年6月22日发射升空。星链项目旨在构建全球卫星互联网星座,为全球偏远地区、海洋和航空等场景提供高速宽带互联网服务,该卫星的入轨进一步扩充了星链星座的规模,助力星座覆盖能力与服务能力提升。

Basic Information
目录编号:
57067
目录名称:
STARLINK-5824
国际标识:
2023-088V
轨道中心:
EARTH
卫星名称:
星链-5824
卫星全名:
星链-5824 (STARLINK-5824 )
卫星状态:
在轨 (已飞行1170 天)
发射日期:
2023-06-22 UTC
国别 :
美国 (US)
星等 :
--
Orbit Information
数据来源 国际轨道数据
星历时间: 2026-09-04T14:36:12+0800
16小时前
查看轨道信息
半长轴: 6861.204km
偏心率: 0.0001397
轨道倾角: 43.004°
近地点辐角 270.624°
升交点赤经 182.182°
平近点角 89.445°
近地点: 482.108km
远地点: 484.026km
周期: 94.267分钟
每日圈数: 15.275742
Detailed Information
固有亮度:
5
最大亮度:
2.4
卫星平台:
Starlink v1.5
覆盖范围:
全球
运营商:
太空探索技术公司
运营商所在国:
美国
制造商(研发单位):
太空探索技术公司
制造商所在国:
美国
使用方式:
暂无
Satellite Introduction
星链(Starlink)计划是由太空探索技术公司(SpaceX)提出的一个巨型低轨卫星互联网星座项目,计划在2019年至2024年间在太空搭建由约1.2万颗卫星组成的“星链”网络,其中1584颗将部署在地球上空550千米处的近地轨道,并从2020年开始工作。该卫星仍在工作。
2D Orbit Map
3D Orbit Map
Orbit Altitude Analysis Chart
Orbit Inclination Analysis Chart
Orbit Comprehensive Analysis Chart
View Comprehensive Chart
Conjunction Data List
Event ID Objects TCA Miss Dist (km) Collision Risk Probability Collision Risk Index (CRI) Action
CDM_260906-114905-706706-267021
2026-09-06T
11:49:57+0000
2.802 km
极远距离
1.427404E-6 低风险 0.38
CDM_260907-065305-706706-731321
2026-09-07T
06:53:29+0000
2.670 km
极远距离
1.246262E-6 低风险 0.37